I1SCL Weather Reports


time (UTC)temp
C
wind
direction
speed
KPH
gust
KPH
rain 1hr
cm
rain 24hr
cm
rain mn
cm
humidity
%
barometer
mb
20260505224122 13 270 8.0 9.7 0.18 0.56 0.00 84 1008.2
20260505223622 13 248 3.2 4.8 0.13 0.56 0.00 84 1008.2
20260505223122 13 90 0.0 3.2 0.08 0.53 0.00 84 1008.2
20260505222622 13 68 0.0 3.2 0.05 0.51 0.00 84 1008.0
20260505222125 13 90 1.6 4.8 0.03 0.46 0.00 83 1008.2
20260505221625 13 113 1.6 4.8 0.03 0.51 0.00 83 1008.5
20260505221128 14 113 1.6 9.7 0.00 0.46 0.00 82 1008.5
20260505220622 14 135 4.8 9.7 0.00 0.46 0.00 81 1008.1
20260505220122 14 90 1.6 9.7 0.00 0.51 0.00 82 1008.2
20260505215622 13 113 8.0 9.7 0.00 0.51 0.00 82 1008.2
20260505215122 14 113 6.4 9.7 0.00 0.51 0.00 82 1008.4
20260505214622 14 45 4.8 9.7 0.00 0.51 0.00 82 1008.6
20260505214125 14 90 6.4 14.5 0.00 0.51 0.00 82 1008.9
20260505213622 14 90 9.7 16.1 0.00 0.51 0.00 82 1009.4
20260505213125 14 113 4.8 14.5 0.00 0.51 0.00 83 1009.4
20260505212622 13 45 9.7 16.1 0.00 0.53 0.00 84 1009.4
20260505212122 13 68 9.7 16.1 0.00 0.53 0.00 84 1009.2
20260505211622 13 68 6.4 12.9 0.00 0.56 0.00 85 1009.3
20260505211125 13 90 4.8 12.9 0.00 0.56 0.00 85 1009.3
20260505210625 13 68 4.8 19.3 0.00 0.56 0.00 85 1009.6
20260505210122 13 90 9.7 19.3 0.00 0.56 0.00 85 1009.2
20260505205625 13 113 6.4 12.9 0.00 0.56 0.00 85 1009.4
20260505205131 13 90 8.0 12.9 0.00 0.56 0.00 85 1009.8
20260505204625 13 113 8.0 12.9 0.00 0.56 0.00 85 1009.7
20260505204122 13 68 8.0 16.1 0.00 0.56 0.00 85 1009.7
20260505203625 13 45 8.0 16.1 0.00 0.56 0.00 86 1009.5
20260505203122 13 113 9.7 16.1 0.00 0.56 0.00 86 1009.6
20260505202625 13 113 6.4 12.9 0.00 0.56 0.00 86 1009.5
20260505202122 13 90 8.0 16.1 0.00 0.56 0.00 86 1009.6
20260505201622 13 90 6.4 14.5 0.00 0.56 0.00 86 1009.4
20260505201122 13 135 6.4 12.9 0.00 0.56 0.00 86 1009.4
20260505200622 13 113 4.8 9.7 0.00 0.56 0.00 86 1009.2
20260505200125 13 113 8.0 9.7 0.00 0.56 0.00 86 1009.4
20260505195625 13 113 3.2 6.4 0.00 0.56 0.00 86 1009.3
20260505195122 13 113 3.2 6.4 0.00 0.56 0.00 86 1009.3
20260505194622 13 135 3.2 6.4 0.00 0.58 0.00 86 1009.3
20260505194125 13 90 3.2 6.4 0.00 0.58 0.00 86 1009.2
20260505193628 13 68 3.2 9.7 0.00 0.58 0.00 86 1009.3
20260505193122 13 113 4.8 6.4 0.00 0.58 0.00 86 1009.3
20260505192628 13 68 4.8 6.4 0.00 0.58 0.00 86 1009.2
20260505192122 13 113 4.8 6.4 0.00 0.58 0.00 86 1009.1
20260505191622 13 113 3.2 9.7 0.00 0.58 0.00 86 1009.0
20260505191125 13 113 4.8 9.7 0.00 0.58 0.00 86 1009.1
20260505190625 13 113 4.8 9.7 0.00 0.58 0.00 86 1008.9
20260505190122 13 45 3.2 9.7 0.00 0.58 0.00 86 1008.8
20260505185622 13 68 4.8 9.7 0.00 0.58 0.00 86 1008.7
20260505185122 13 68 4.8 9.7 0.00 0.58 0.00 85 1009.0
20260505184625 13 68 4.8 9.7 0.00 0.58 0.00 85 1008.9
20260505184122 13 113 4.8 9.7 0.00 0.58 0.00 85 1008.9
20260505183625 13 113 6.4 9.7 0.00 0.58 0.00 85 1008.7
20260505183122 13 90 4.8 6.4 0.00 0.58 0.00 85 1009.0
20260505182622 14 90 3.2 4.8 0.00 0.58 0.00 85 1008.9
20260505182128 14 90 1.6 6.4 0.00 0.58 0.00 85 1009.0
20260505181622 14 90 4.8 9.7 0.00 0.58 0.00 84 1009.1
20260505181125 14 135 6.4 9.7 0.00 0.58 0.00 84 1009.0
20260505180622 14 90 4.8 9.7 0.00 0.58 0.00 84 1009.0
20260505180122 14 113 4.8 12.9 0.00 0.58 0.00 84 1009.0
20260505175628 14 90 4.8 14.5 0.00 0.58 0.00 83 1008.9
20260505175125 14 113 11.3 17.7 0.00 0.58 0.00 83 1009.0
20260505174625 15 113 8.0 12.9 0.00 0.58 0.00 82 1009.1
20260505174125 15 90 9.7 12.9 0.00 0.58 0.00 82 1008.9
20260505173628 15 113 6.4 12.9 0.00 0.58 0.00 82 1008.8
20260505173125 15 90 4.8 14.5 0.00 0.58 0.00 82 1009.1
20260505172622 15 68 8.0 14.5 0.00 0.58 0.00 81 1009.0
20260505172125 15 68 4.8 12.9 0.00 0.58 0.00 81 1009.1
20260505171622 15 68 8.0 14.5 0.00 0.58 0.00 81 1009.2
20260505171131 15 90 6.4 12.9 0.00 0.58 0.00 81 1009.3
20260505170622 15 68 4.8 14.5 0.00 0.58 0.00 81 1009.1
20260505170125 15 158 9.7 16.1 0.00 0.58 0.00 81 1009.2
20260505165625 15 113 9.7 16.1 0.00 0.58 0.00 81 1009.2
20260505165122 15 113 9.7 16.1 0.00 0.58 0.00 80 1009.2
20260505164625 15 135 11.3 14.5 0.00 0.58 0.00 80 1009.1
20260505164125 15 113 9.7 14.5 0.00 0.58 0.00 79 1009.2
20260505163625 15 113 9.7 14.5 0.00 0.58 0.00 79 1009.4
20260505163122 15 90 8.0 14.5 0.00 0.58 0.00 79 1009.3
20260505162625 15 113 9.7 19.3 0.00 0.58 0.00 79 1009.5
20260505162122 15 90 9.7 19.3 0.00 0.58 0.00 77 1009.5
20260505161622 16 113 4.8 16.1 0.00 0.58 0.00 78 1009.3
20260505161122 15 135 4.8 19.3 0.00 0.58 0.00 78 1009.4
20260505160622 15 113 9.7 16.1 0.00 0.58 0.00 78 1009.4
20260505160125 15 113 9.7 16.1 0.00 0.58 0.00 78 1009.2
20260505153122 15 113 9.7 17.7 0.00 0.58 0.00 76 1009.4
20260505152622 15 113 8.0 17.7 0.00 0.58 0.00 76 1009.5
20260505152122 15 135 9.7 16.1 0.00 0.58 0.00 76 1009.4
20260505151622 15 90 8.0 16.1 0.00 0.58 0.00 77 1009.2
20260505151122 15 90 9.7 14.5 0.00 0.58 0.00 77 1009.4
20260505150622 15 113 8.0 16.1 0.00 0.58 0.00 77 1009.3
20260505150128 15 113 9.7 16.1 0.00 0.58 0.00 77 1009.3
20260505140625 16 113 4.8 12.9 0.00 0.58 0.00 74 1009.6
20260505140122 16 158 8.0 9.7 0.00 0.58 0.00 74 1009.6
20260505130122 15 113 4.8 9.7 0.00 0.58 0.00 83 1009.9
20260505124622 15 113 4.8 9.7 0.00 0.58 0.00 82 1010.1
20260505124122 15 113 4.8 9.7 0.00 0.58 0.00 81 1009.9
20260505123622 15 135 4.8 9.7 0.00 0.58 0.00 79 1009.9
20260505123125 16 113 6.4 9.7 0.00 0.58 0.00 77 1009.9
20260505122625 15 113 1.6 6.4 0.00 0.58 0.00 74 1009.9
20260505122125 15 158 4.8 4.8 0.00 0.58 0.00 75 1010.1
20260505121625 16 135 0.0 6.4 0.00 0.58 0.00 78 1009.9
20260505121125 16 135 4.8 6.4 0.00 0.58 0.00 76 1010.1
20260505120622 15 68 0.0 3.2 0.00 0.58 0.00 74 1010.0
20260505120122 15 90 0.0 3.2 0.00 0.58 0.00 75 1010.1
20260505115622 16 113 0.0 6.4 0.00 0.58 0.00 76 1010.1
20260505115122 16 113 1.6 3.2 0.00 0.58 0.00 76 1010.0
20260505114625 15 68 0.0 4.8 0.00 0.58 0.00 76 1010.0
20260505114131 15 113 0.0 9.7 0.00 0.58 0.00 77 1010.1
20260505113622 16 113 4.8 9.7 0.00 0.58 0.00 76 1009.9
20260505113122 15 113 0.0 9.7 0.00 0.58 0.00 75 1010.1
20260505112625 15 90 6.4 9.7 0.00 0.58 0.00 76 1010.1
20260505112125 15 68 3.2 4.8 0.00 0.58 0.00 78 1010.0
20260505111625 15 90 0.0 4.8 0.00 0.58 0.00 79 1010.0
20260505111122 15 90 0.0 4.8 0.00 0.58 0.00 80 1010.0
20260505110625 15 45 0.0 1.6 0.00 0.58 0.00 82 1010.0
20260505110122 15 113 0.0 3.2 0.00 0.58 0.00 83 1010.0
20260505102128 15 113 0.0 3.2 0.00 0.58 0.00 81 1009.9
20260505101622 15 158 1.6 4.8 0.00 0.58 0.00 82 1010.1
20260505101125 15 270 1.6 3.2 0.00 0.58 0.00 83 1009.9
20260505100625 14 90 0.0 4.8 0.00 0.58 0.00 85 1010.0
20260505100128 14 113 0.0 3.2 0.00 0.58 0.00 86 1009.8
20260505095625 13 90 1.6 3.2 0.00 0.58 0.00 88 1009.7
20260505095122 13 68 0.0 1.6 0.00 0.58 0.00 88 1010.0
20260505094622 14 0 0.0 4.8 0.00 0.58 0.00 88 1010.0
20260505094125 15 293 3.2 4.8 0.00 0.58 0.00 88 1009.9
20260505093625 15 270 3.2 4.8 0.00 0.58 0.00 88 1010.0
20260505093125 14 293 3.2 4.8 0.00 0.58 0.00 88 1010.0
20260505092622 13 248 0.0 1.6 0.00 0.58 0.00 89 1010.0
20260505092122 14 248 0.0 1.6 0.00 0.58 0.00 89 1010.0
20260505091625 14 248 0.0 3.2 0.00 0.58 0.00 89 1009.9
20260505091125 14 293 1.6 4.8 0.00 0.58 0.00 90 1009.6
20260505090622 14 270 4.8 6.4 0.00 0.58 0.00 90 1009.9
20260505090122 14 270 4.8 6.4 0.00 0.58 0.00 89 1009.7
20260505085625 13 270 4.8 6.4 0.00 0.58 0.00 89 1009.7
20260505085122 14 293 4.8 9.7 0.00 0.58 0.00 89 1009.8
20260505084628 14 270 6.4 9.7 0.00 0.58 0.00 89 1009.8
20260505084125 14 270 0.0 3.2 0.00 0.58 0.00 89 1009.7
20260505083625 14 270 0.0 3.2 0.00 0.58 0.00 89 1009.6
20260505083125 13 0 0.0 4.8 0.00 0.58 0.00 89 1009.5
20260505082625 14 270 4.8 6.4 0.00 0.58 0.00 89 1009.6
20260505082128 14 270 3.2 6.4 0.00 0.58 0.00 89 1009.5
20260505081625 13 293 1.6 9.7 0.00 0.58 0.00 89 1009.6
20260505081125 13 225 6.4 9.7 0.00 0.58 0.00 89 1009.6
20260505080622 13 248 6.4 9.7 0.00 0.58 0.00 89 1009.5
20260505080125 14 270 4.8 4.8 0.00 0.58 0.00 89 1009.6
20260505075625 14 135 1.6 4.8 0.00 0.58 0.00 90 1009.4
20260505075122 14 135 0.0 1.6 0.00 0.58 0.00 90 1009.5
20260505074625 13 113 0.0 3.2 0.03 0.58 0.00 90 1009.4
20260505074125 13 293 0.0 4.8 0.03 0.58 0.00 90 1009.4
20260505073622 13 270 3.2 4.8 0.03 0.58 0.00 90 1009.5
20260505073128 13 315 3.2 4.8 0.03 0.58 0.00 90 1009.4
20260505072622 13 248 1.6 4.8 0.03 0.58 0.00 90 1009.4
20260505072131 13 270 3.2 4.8 0.03 0.58 0.00 90 1009.4
20260505071625 13 135 0.0 6.4 0.03 0.58 0.00 91 1009.4
20260505071122 13 113 4.8 9.7 0.03 0.58 0.00 90 1009.4
20260505070625 13 135 4.8 12.9 0.03 0.58 0.00 91 1009.2
20260505070122 13 293 9.7 19.3 0.03 0.58 0.00 91 1009.0
20260505065622 13 338 9.7 17.7 0.03 0.58 0.00 91 1009.2
20260505065125 13 293 9.7 20.9 0.03 0.58 0.00 91 1009.4
20260505064625 13 248 14.5 19.3 0.00 0.56 0.00 91 1009.1
20260505064125 13 270 9.7 14.5 0.00 0.56 0.00 91 1009.0
20260505063628 13 248 4.8 6.4 0.00 0.56 0.00 91 1008.9
20260505063125 13 113 4.8 9.7 0.00 0.56 0.00 91 1008.7
20260505062622 13 135 4.8 12.9 0.00 0.56 0.00 91 1008.5
20260505062128 13 113 9.7 12.9 0.00 0.56 0.00 91 1008.7
20260505061628 13 90 6.4 9.7 0.00 0.56 0.00 91 1008.7
20260505061125 13 90 6.4 9.7 0.00 0.56 0.00 91 1008.5
20260505060625 13 90 4.8 9.7 0.00 0.56 0.00 91 1008.6
20260505060122 13 68 6.4 9.7 0.00 0.56 0.00 92 1008.6
20260505055625 13 68 8.0 9.7 0.00 0.56 0.00 92 1008.5
20260505055128 13 90 8.0 12.9 0.00 0.56 0.00 92 1008.3
20260505054622 13 113 9.7 12.9 0.00 0.56 0.00 92 1008.5
20260505054122 13 90 3.2 4.8 0.00 0.56 0.00 92 1008.3
20260505053625 13 68 0.0 3.2 0.00 0.56 0.00 92 1008.3
20260505053122 13 68 1.6 4.8 0.00 0.56 0.00 92 1008.3
20260505052625 12 0 1.6 4.8 0.00 0.56 0.00 92 1008.3
20260505052122 13 293 4.8 4.8 0.00 0.56 0.00 92 1008.2
20260505051622 13 270 1.6 6.4 0.00 0.56 0.00 92 1008.3
20260505051122 13 270 6.4 6.4 0.00 0.56 0.00 92 1008.2
20260505050622 13 270 6.4 6.4 0.00 0.56 0.00 92 1007.9
20260505041645 13 315 0.0 1.6 0.03 0.56 0.00 92 1007.9
20260505041148 13 315 0.0 1.6 0.03 0.56 0.00 92 1007.9
20260505040648 13 315 1.6 9.7 0.03 0.56 0.00 92 1008.0
20260505040148 13 248 6.4 9.7 0.03 0.56 0.00 92 1008.2
20260505035651 13 248 6.4 9.7 0.03 0.56 0.00 92 1008.1
20260505035148 13 248 9.7 12.9 0.03 0.56 0.00 91 1008.3
20260505034648 13 270 9.7 12.9 0.00 0.53 0.00 91 1008.2
20260505034145 13 270 9.7 12.9 0.00 0.53 0.00 91 1008.3
20260505033645 13 270 9.7 12.9 0.00 0.53 0.00 91 1008.1
20260505033151 13 248 9.7 12.9 0.00 0.53 0.00 91 1008.2
20260505032645 13 248 6.4 9.7 0.00 0.53 0.00 91 1008.1
20260505022202 13 113 0.0 0.0 0.25 0.53 0.00 89 1009.5
20260505021659 13 113 0.0 0.0 0.25 0.53 0.00 89 1009.5
20260505021156 13 113 0.0 1.6 0.25 0.53 0.00 89 1009.5
20260505020702 13 113 0.0 3.2 0.23 0.51 0.00 89 1009.2
20260505020159 13 270 9.7 12.9 0.00 0.25 0.00 86 1009.6
20260505015656 13 270 9.7 12.9 0.00 0.25 0.00 86 1009.6
20260505015156 13 270 9.7 12.9 0.00 0.25 0.00 86 1009.3
20260505004611 13 113 14.5 20.9 0.03 0.25 0.00 83 1009.6
20260505004108 13 113 14.5 20.9 0.03 0.25 0.00 83 1009.6
20260505003614 13 113 14.5 20.9 0.03 0.25 0.00 83 1009.6
20260505001629 13 135 11.3 16.1 0.03 0.25 0.00 82 1010.5
20260505001129 13 135 11.3 16.1 0.03 0.25 0.00 82 1010.5
20260505000629 13 135 11.3 16.1 0.03 0.25 0.00 82 1010.6
20260505000138 13 135 11.3 16.1 0.05 0.25 0.00 82 1010.6
20260504235629 14 113 9.7 19.3 0.05 0.25 0.00 80 1010.6
20260504235132 14 113 14.5 24.1 0.03 0.23 0.00 78 1010.8
20260504234629 14 113 12.9 24.1 0.03 0.23 0.00 77 1010.8
20260504234129 14 113 16.1 24.1 0.03 0.23 0.00 77 1010.8
20260504233638 15 113 14.5 24.1 0.05 0.23 0.00 76 1010.8
20260504233129 15 113 9.7 24.1 0.08 0.23 0.00 75 1010.7
20260504232635 15 113 11.3 30.6 0.08 0.23 0.00 74 1010.9
20260504232129 15 68 19.3 30.6 0.08 0.23 0.00 74 1010.6
20260504231629 15 113 16.1 30.6 0.10 0.23 0.00 74 1010.8
20260504231132 15 135 19.3 30.6 0.10 0.23 0.00 75 1010.8
20260504230629 15 90 14.5 30.6 0.10 0.23 0.00 75 1010.8
20260504230135 14 90 14.5 20.9 0.10 0.20 0.00 77 1011.2
20260504225629 14 113 12.9 24.1 0.10 0.20 0.00 77 1011.3
20260504225135 13 113 9.7 19.3 0.10 0.20 0.00 80 1011.7
20260504224629 13 68 9.7 19.3 0.10 0.20 0.00 81 1011.6